Weather History for Glendive, MT

Change the Weather History Date:

Tuesday, April 8, 2014

  Actual Average Record
Temperature  
Mean Temperature 48 °F -  
Max Temperature 69 °F 49 °F 82 °F (2005)
Min Temperature 28 °F 27 °F 0 °F (1997)
Degree Days  
Heating Degree Days 16    
Moisture  
Dew Point 29 °F    
Average Humidity 52    
Maximum Humidity 86    
Minimum Humidity 21    
Precipitation  
Precipitation 0.00 in - - ()
Sea Level Pressure  
Sea Level Pressure 29.92 in    
Wind  
Wind Speed 7 mph (SW)    
Max Wind Speed 23 mph    
Max Gust Speed 29 mph    
Visibility 10 miles    
Events      
Averages and records for this station are not official NWS values.
T = Trace of Precipitation, MM = Missing Value Source: NWS Daily Summary

Daily Weather History Graph

Daily Weather History Graph

Search for Another Location

Airport:

Trip Planner

Search our weather history database for the weather conditions in past years. The results will help you decide how hot, cold, wet, or windy it might be!

Date:

Astronomy

Apr. 08, 2014 Rise Set
Actual Time 6:24 AM MDT 7:38 PM MDT
Civil Twilight 5:53 AM MDT 8:10 PM MDT
Nautical Twilight 5:15 AM MDT 8:47 PM MDT
Astronomical Twilight 4:34 AM MDT 9:28 PM MDT
Moon 1:12 PM MDT (4/8) 3:01 AM MDT (4/8)
Length of Visible Light 14h 16m
Length of Day
13h 14m
Waxing Gibbous, 63% of the Moon is Illuminated
Apr 8
Waxing Gibbous
Apr 15
Full
Apr 22
Last Quarter
Apr 29
New
May 6
First Quarter

Hourly Weather History & Observations

Time (MDT) Temp. Windchill Dew Point Humidity Pressure Visibility Wind Dir Wind Speed Gust Speed Precip Events Conditions
12:15 AM 32.0 °F - 23.0 °F 69% 30.06 in 10.0 mi Calm Calm - N/A   Clear
12:35 AM 35.6 °F - 23.0 °F 60% 30.06 in 10.0 mi Calm Calm - N/A   Clear
12:55 AM 35.6 °F - 21.2 °F 56% 30.06 in 10.0 mi Calm Calm - N/A   Clear
1:15 AM 37.4 °F - 23.0 °F 56% 30.06 in 10.0 mi Calm Calm - N/A   Clear
1:35 AM 32.0 °F - 21.2 °F 64% 30.06 in 10.0 mi Calm Calm - N/A   Clear
1:55 AM 33.8 °F - 21.2 °F 60% 30.06 in 10.0 mi Calm Calm - N/A   Clear
2:15 AM 30.2 °F - 21.2 °F 69% 30.05 in 10.0 mi Calm Calm - N/A   Clear
2:35 AM 30.2 °F - 23.0 °F 75% 30.05 in 10.0 mi Calm Calm - N/A   Clear
2:55 AM 30.2 °F - 21.2 °F 69% 30.04 in 10.0 mi Calm Calm - N/A   Clear
3:15 AM 28.4 °F - 24.8 °F 86% 30.04 in 10.0 mi Calm Calm - N/A   Clear
3:35 AM 30.2 °F 24.3 °F 21.2 °F 69% 30.03 in 10.0 mi South 5.8 mph - N/A   Clear
3:55 AM 30.2 °F 24.3 °F 24.8 °F 80% 30.03 in 10.0 mi South 5.8 mph - N/A   Clear
4:15 AM 30.2 °F 25.4 °F 24.8 °F 80% 30.03 in 10.0 mi South 4.6 mph - N/A   Clear
4:35 AM 28.4 °F 22.2 °F 24.8 °F 86% 30.03 in 10.0 mi SSW 5.8 mph - N/A   Clear
4:55 AM 28.4 °F 20.4 °F 23.0 °F 80% 30.02 in 10.0 mi South 8.1 mph - N/A   Clear
5:15 AM 30.2 °F 22.6 °F 24.8 °F 80% 30.02 in 10.0 mi South 8.1 mph - N/A   Partly Cloudy
5:55 AM 32.0 °F 24.2 °F 26.6 °F 80% 30.02 in 10.0 mi SSW 9.2 mph - N/A   Overcast
6:15 AM 32.0 °F 24.2 °F 26.6 °F 80% 30.02 in 10.0 mi SSW 9.2 mph - N/A   Mostly Cloudy
6:35 AM 30.2 °F 22.6 °F 24.8 °F 80% 30.01 in 10.0 mi SSW 8.1 mph - N/A   Clear
7:15 AM 32.0 °F 25.6 °F 26.6 °F 80% 30.00 in 10.0 mi South 6.9 mph - N/A   Clear
7:55 AM 33.8 °F 27.7 °F 28.4 °F 81% 30.00 in 10.0 mi South 6.9 mph - N/A   Clear
8:15 AM 35.6 °F 30.7 °F 28.4 °F 75% 30.00 in 10.0 mi South 5.8 mph - N/A   Clear
8:35 AM 35.6 °F 29.2 °F 30.2 °F 81% 30.00 in 10.0 mi SSE 8.1 mph - N/A   Clear
8:55 AM 37.4 °F 32.1 °F 32.0 °F 81% 30.00 in 10.0 mi SSE 6.9 mph - N/A   Clear
9:15 AM 39.2 °F 33.0 °F 33.8 °F 81% 29.99 in 10.0 mi South 9.2 mph - N/A   Clear
9:35 AM 42.8 °F 37.0 °F 33.8 °F 70% 29.99 in 10.0 mi South 10.4 mph - N/A   Clear
9:55 AM 44.6 °F 39.7 °F 33.8 °F 66% 29.98 in 10.0 mi SSE 9.2 mph - N/A   Clear
10:15 AM 50.0 °F - 35.6 °F 58% 29.98 in 10.0 mi SSE 9.2 mph - N/A   Clear
10:35 AM 51.8 °F - 35.6 °F 54% 29.97 in 10.0 mi SE 9.2 mph - N/A   Clear
10:55 AM 57.2 °F - 37.4 °F 48% 29.97 in 10.0 mi SSE 10.4 mph - N/A   Clear
11:15 AM 60.8 °F - 35.6 °F 39% 29.96 in 10.0 mi WSW 12.7 mph - N/A   Clear
11:35 AM 62.6 °F - 35.6 °F 37% 29.96 in 10.0 mi SW 13.8 mph - N/A   Clear
11:55 AM 64.4 °F - 35.6 °F 34% 29.94 in 10.0 mi WSW 16.1 mph 20.7 mph N/A   Clear
12:15 PM 64.4 °F - 35.6 °F 34% 29.93 in 10.0 mi WSW 17.3 mph 23.0 mph N/A   Clear
12:35 PM 64.4 °F - 35.6 °F 34% 29.93 in 10.0 mi WSW 16.1 mph 23.0 mph N/A   Clear
12:55 PM 64.4 °F - 35.6 °F 34% 29.92 in 10.0 mi SW 16.1 mph 23.0 mph N/A   Clear
1:15 PM 64.4 °F - 37.4 °F 37% 29.91 in 10.0 mi SSW 19.6 mph 25.3 mph N/A   Clear
1:35 PM 64.4 °F - 37.4 °F 37% 29.90 in 10.0 mi WSW 17.3 mph - N/A   Clear
1:55 PM 66.2 °F - 33.8 °F 30% 29.89 in 10.0 mi WSW 19.6 mph 28.8 mph N/A   Clear
2:15 PM 66.2 °F - 33.8 °F 30% 29.89 in 10.0 mi West 23.0 mph 27.6 mph N/A   Clear
2:35 PM 64.4 °F - 32.0 °F 30% 29.88 in 10.0 mi West 18.4 mph 27.6 mph N/A   Clear
2:55 PM 66.2 °F - 32.0 °F 28% 29.87 in 10.0 mi West 18.4 mph 26.5 mph N/A   Clear
3:15 PM 66.2 °F - 30.2 °F 26% 29.86 in 10.0 mi WSW 17.3 mph 26.5 mph N/A   Clear
3:35 PM 66.2 °F - 30.2 °F 26% 29.85 in 10.0 mi West 19.6 mph 28.8 mph N/A   Clear
3:55 PM 68.0 °F - 30.2 °F 24% 29.84 in 10.0 mi West 19.6 mph 24.2 mph N/A   Clear
4:15 PM 68.0 °F - 32.0 °F 26% 29.83 in 10.0 mi WSW 17.3 mph 26.5 mph N/A   Clear
4:35 PM 69.8 °F - 32.0 °F 25% 29.83 in 10.0 mi West 18.4 mph 27.6 mph N/A   Clear
4:55 PM 69.8 °F - 30.2 °F 23% 29.82 in 10.0 mi West 20.7 mph 26.5 mph N/A   Clear
5:15 PM 69.8 °F - 30.2 °F 23% 29.81 in 10.0 mi West 20.7 mph 28.8 mph N/A   Clear
5:35 PM 69.8 °F - 30.2 °F 23% 29.81 in 10.0 mi West 19.6 mph 26.5 mph N/A   Clear
5:55 PM 69.8 °F - 30.2 °F 23% 29.81 in 10.0 mi West 18.4 mph 25.3 mph N/A   Clear
6:15 PM 69.8 °F - 28.4 °F 21% 29.81 in 10.0 mi WNW 13.8 mph - N/A   Clear
6:35 PM 66.2 °F - 28.4 °F 24% 29.80 in 10.0 mi West 13.8 mph - N/A   Clear
6:55 PM 64.4 °F - 28.4 °F 26% 29.80 in 10.0 mi West 11.5 mph - N/A   Clear
7:15 PM 60.8 °F - 28.4 °F 29% 29.79 in 10.0 mi West 9.2 mph - N/A   Clear
7:35 PM 55.4 °F - 28.4 °F 36% 29.80 in 10.0 mi WNW 8.1 mph - N/A   Clear
7:55 PM 51.8 °F - 28.4 °F 41% 29.79 in 10.0 mi West 9.2 mph - N/A   Clear
8:15 PM 50.0 °F - 30.2 °F 47% 29.79 in 10.0 mi West 9.2 mph - N/A   Clear
8:35 PM 48.2 °F - 28.4 °F 46% 29.79 in 10.0 mi WSW 12.7 mph - N/A   Clear
8:55 PM 50.0 °F - 30.2 °F 47% 29.79 in 10.0 mi WSW 9.2 mph - N/A   Clear
9:15 PM 48.2 °F - 28.4 °F 46% 29.78 in 10.0 mi West 6.9 mph - N/A   Clear
9:35 PM 46.4 °F 42.9 °F 28.4 °F 50% 29.78 in 10.0 mi West 6.9 mph - N/A   Clear
9:55 PM 44.6 °F 40.2 °F 28.4 °F 53% 29.77 in 10.0 mi West 8.1 mph - N/A   Clear
10:15 PM 44.6 °F 40.2 °F 28.4 °F 53% 29.77 in 10.0 mi WSW 8.1 mph - N/A   Clear
10:35 PM 44.6 °F 39.7 °F 30.2 °F 57% 29.77 in 10.0 mi West 9.2 mph - N/A   Clear
10:55 PM 46.4 °F 41.1 °F 30.2 °F 53% 29.76 in 10.0 mi West 11.5 mph - N/A   Clear
11:15 PM 46.4 °F 41.1 °F 30.2 °F 53% 29.76 in 10.0 mi West 11.5 mph - N/A   Clear
11:35 PM 46.4 °F 40.7 °F 30.2 °F 53% 29.77 in 10.0 mi West 12.7 mph - N/A   Clear
11:55 PM 44.6 °F 39.7 °F 28.4 °F 53% 29.76 in 10.0 mi West 9.2 mph - N/A   Clear